Stations météo

réclame
Mon MeteoGroup
Granada/Aeropuerto, Espagne (8419): Température de l'air & dewpoint: 12.08.2018 02:00:00 - 18.08.2018 02:00:00 (CEST)Granada/Aeropuerto, Espagne (8419): Vitesse du vent: 12.08.2018 02:00:00 - 18.08.2018 02:00:00 (CEST)Granada/Aeropuerto, Espagne (8419): Direction du vent: 12.08.2018 02:00:00 - 18.08.2018 02:00:00 (CEST)Granada/Aeropuerto, Espagne (8419): reduced air pressure: 12.08.2018 02:00:00 - 18.08.2018 02:00:00 (CEST)Granada/Aeropuerto, Espagne (8419): visibility: 12.08.2018 02:00:00 - 18.08.2018 02:00:00 (CEST)
Date & Time tt [°C] td [°C] ff [km/h] ff [knt] dd ppp [hPa] vv [km]
18.08.2018 02:00:00 20,7 12,2 0 0 N 1016,4 30
18.08.2018 01:00:00 22,5 13,2 4 2 WSW 1015,8 30
18.08.2018 00:00:00 23,4 13,0 4 2 WNW 1015,7 30
17.08.2018 23:00:00 25,2 12,1 5 3 SSE 1015,0 30
17.08.2018 22:00:00 26,1 12,9 4 2 ESE 1014,0 30
17.08.2018 21:00:00 28,0 14,9 2 1 WNW 1012,9 24
17.08.2018 20:00:00 30,3 13,6 13 7 WSW 1012,1 30
17.08.2018 19:00:00 30,0 14,0 8 4 W 1011,9 30
17.08.2018 18:00:00 31,5 14,2 13 7 W 1011,3 30
17.08.2018 17:00:00 34,4 10,3 8 4 W 1011,0 30
17.08.2018 16:00:00 33,6 11,2 4 2 SSW 1011,7 28
17.08.2018 15:00:00 32,0 10,1 5 3 NNW 1012,8 30
17.08.2018 14:00:00 30,9 12,4 2 1 NE 1013,5 30
17.08.2018 13:00:00 28,9 13,2 4 2 NNW 1014,5 30
17.08.2018 12:00:00 27,3 14,0 0 0 N 1015,2 30
17.08.2018 11:00:00 24,6 15,6 2 1 W 1015,6 30
17.08.2018 10:00:00 21,6 15,7 0 0 N 1016,4 15
17.08.2018 09:00:00 19,2 15,2 0 0 N 1016,9 20
17.08.2018 08:00:00 16,5 13,6 4 2 S 1017,5 23
17.08.2018 07:00:00 16,6 14,4 8 4 SW 1017,0 20
17.08.2018 06:00:00 17,1 14,7 4 2 WNW 1016,7 21
17.08.2018 05:00:00 19,2 15,0 4 2 E 1016,2 30
17.08.2018 04:00:00 18,8 16,0 8 4 SSW 1016,7 24
17.08.2018 03:00:00 19,0 15,9 5 3 NNW 1016,4 28
17.08.2018 02:00:00 19,1 15,2 5 3 WNW 1016,4 30
17.08.2018 01:00:00 19,8 15,4 5 3 S 1016,6 30
17.08.2018 00:00:00 20,1 16,1 8 4 SSW 1017,0 30
16.08.2018 23:00:00 20,4 15,4 4 2 N 1016,9 25
16.08.2018 22:00:00 21,2 16,1 5 3 W 1016,1 7
16.08.2018 21:00:00 22,0 14,6 8 4 NW 1014,7 30
16.08.2018 20:00:00 23,5 14,8 18 10 ESE 1014,4 30
16.08.2018 19:00:00 22,8 15,1 11 6 NNE 1014,3 28
16.08.2018 18:00:00 26,5 13,6 8 4 N 1012,9 29
16.08.2018 17:00:00 28,8 11,6 29 16 S 1011,2 25
16.08.2018 16:00:00 33,1 12,8 5 3 NNE 1010,6 27
16.08.2018 15:00:00 33,1 13,3 8 4 NNW 1011,2 30
16.08.2018 14:00:00 31,6 16,8 9 5 NNW 1012,1 20
16.08.2018 13:00:00 30,4 16,6 4 2 SW 1013,2 19
16.08.2018 12:00:00 27,6 17,3 4 2 N 1014,4 18
16.08.2018 11:00:00 25,6 17,0 4 2 WNW 1014,8 25
16.08.2018 10:00:00 23,0 16,1 2 1 W 1015,6 22
16.08.2018 09:00:00 20,1 15,4 4 2 W 1016,4 15
16.08.2018 08:00:00 17,9 14,8 0 0 N 1016,7 15
16.08.2018 07:00:00 18,1 14,9 0 0 N 1016,5 16
16.08.2018 06:00:00 18,5 14,4 4 2 SW 1016,1 20
16.08.2018 05:00:00 19,0 14,7 2 1 W 1016,0 22
16.08.2018 04:00:00 19,6 15,0 0 0 N 1015,9 22
16.08.2018 03:00:00 20,3 14,9 4 2 WSW 1015,9 28
16.08.2018 02:00:00 21,9 13,3 0 0 N 1015,7 30
16.08.2018 01:00:00 22,4 11,6 5 3 W 1015,6 30
16.08.2018 00:00:00 24,0 15,7 2 1 NNW 1014,9 29
15.08.2018 23:00:00 26,1 14,9 0 0 N 1014,7 25
15.08.2018 22:00:00 27,1 15,2 8 4 S 1013,9 30
15.08.2018 21:00:00 28,6 14,1 13 7 SW 1013,0 30
15.08.2018 20:00:00 31,2 12,5 18 10 WSW 1011,8 25
15.08.2018 19:00:00 33,8 9,8 15 8 SSW 1011,1 30
15.08.2018 18:00:00 34,8 11,6 15 8 SW 1010,8 30
15.08.2018 17:00:00 34,0 11,8 15 8 W 1011,1 22
15.08.2018 16:00:00 34,9 11,3 22 12 WSW 1011,2 30
15.08.2018 15:00:00 34,3 11,9 13 7 W 1011,9 25
15.08.2018 14:00:00 33,8 13,2 9 5 W 1012,5 22
15.08.2018 13:00:00 31,4 14,4 4 2 NNW 1013,5 29
15.08.2018 12:00:00 29,3 15,1 8 4 NNW 1014,4 18
15.08.2018 11:00:00 26,9 14,3 0 0 N 1015,1 22
15.08.2018 10:00:00 23,5 13,4 0 0 N 1016,1 21
15.08.2018 09:00:00 20,3 12,1 0 0 N 1016,9 20
15.08.2018 08:00:00 16,4 11,1 0 0 N 1017,6 18
15.08.2018 07:00:00 17,7 11,0 0 0 N 1016,9 30
15.08.2018 06:00:00 18,1 11,2 2 1 W 1016,6 30
15.08.2018 05:00:00 18,8 11,1 2 1 SSW 1016,4 30
15.08.2018 04:00:00 19,9 11,5 2 1 S 1016,4 30
15.08.2018 03:00:00 20,4 12,1 0 0 N 1016,3 30
15.08.2018 02:00:00 22,2 11,6 0 0 N 1016,4 30
15.08.2018 01:00:00 23,2 11,9 8 4 SW 1016,0 30
15.08.2018 00:00:00 25,5 12,0 0 0 N 1015,5 30
14.08.2018 23:00:00 26,6 11,8 8 4 WSW 1014,8 30
14.08.2018 22:00:00 28,0 11,5 5 3 WSW 1013,8 30
14.08.2018 21:00:00 30,7 11,5 13 7 W 1012,4 30
14.08.2018 20:00:00 33,1 11,6 22 12 W 1011,3 30
14.08.2018 19:00:00 34,9 12,3 22 12 W 1010,7 30
14.08.2018 18:00:00 35,9 11,5 18 10 WNW 1010,6 30
14.08.2018 17:00:00 36,8 9,6 13 7 NW 1010,5 30
14.08.2018 16:00:00 36,1 10,1 15 8 W 1011,1 26
14.08.2018 15:00:00 34,8 10,1 4 2 WNW 1011,9 25
14.08.2018 14:00:00 33,2 11,8 4 2 N 1012,7 30
14.08.2018 13:00:00 30,9 12,3 4 2 NW 1013,7 30
14.08.2018 12:00:00 28,3 12,2 4 2 W 1014,7 30
14.08.2018 11:00:00 26,0 12,3 0 0 N 1015,3 20
14.08.2018 10:00:00 22,7 11,8 0 0 N 1016,0 17
14.08.2018 09:00:00 19,2 10,7 0 0 N 1016,7 20
14.08.2018 08:00:00 16,2 10,3 4 2 W 1017,0 30
14.08.2018 07:00:00 15,9 10,2 5 3 WSW 1016,7 30
14.08.2018 06:00:00 16,7 11,0 2 1 W 1016,0 30
14.08.2018 05:00:00 17,3 11,4 0 0 N 1016,0 30
14.08.2018 04:00:00 19,6 10,1 0 0 N 1015,5 30
14.08.2018 03:00:00 20,0 11,2 0 0 N 1015,4 30
14.08.2018 02:00:00 21,1 10,6 2 1 WSW 1015,0 30
14.08.2018 01:00:00 22,3 10,4 8 4 W 1014,4 30
14.08.2018 00:00:00 23,6 10,3 0 0 N 1013,8 30
13.08.2018 23:00:00 24,7 10,3 11 6 W 1013,2 30
13.08.2018 22:00:00 27,0 10,2 8 4 W 1012,0 30
13.08.2018 21:00:00 29,6 10,7 16 9 W 1010,9 30
13.08.2018 20:00:00 32,0 10,7 24 13 W 1009,9 30
13.08.2018 19:00:00 33,3 10,0 24 13 W 1009,6 22
13.08.2018 18:00:00 33,9 11,5 24 13 WNW 1009,6 30
13.08.2018 17:00:00 34,1 12,2 22 12 W 1009,7 30
13.08.2018 16:00:00 34,5 12,1 15 8 W 1010,2 30
13.08.2018 15:00:00 33,5 11,4 9 5 WNW 1010,9 30
13.08.2018 14:00:00 33,0 11,8 9 5 WSW 1011,8 30
13.08.2018 13:00:00 31,1 14,4 9 5 NNW 1012,6 24
13.08.2018 12:00:00 29,6 16,8 2 1 SW 1013,4 25
13.08.2018 11:00:00 26,6 16,1 2 1 NW 1014,1 25
13.08.2018 10:00:00 23,3 16,3 4 2 N 1014,9 14
13.08.2018 09:00:00 21,5 15,6 0 0 N 1014,9 20
13.08.2018 08:00:00 17,6 14,3 0 0 N 1015,7 15
13.08.2018 07:00:00 17,5 14,2 0 0 N 1015,4 18
13.08.2018 06:00:00 18,6 13,9 4 2 SSW 1015,1 21
13.08.2018 05:00:00 18,9 14,0 0 0 N 1015,0 22
13.08.2018 04:00:00 19,8 13,5 4 2 SSW 1015,0 26
13.08.2018 03:00:00 20,5 13,0 0 0 N 1015,2 26
13.08.2018 02:00:00 21,3 14,1 0 0 N 1014,7 24
13.08.2018 01:00:00 23,0 12,8 5 3 SW 1014,3 30
13.08.2018 00:00:00 23,8 13,3 2 1 N 1014,6 26
12.08.2018 23:00:00 25,5 12,7 0 0 N 1013,9 30
12.08.2018 22:00:00 27,5 13,1 13 7 SSW 1012,8 29
12.08.2018 21:00:00 29,9 13,2 15 8 SW 1011,3 26
12.08.2018 20:00:00 32,4 11,0 22 12 WSW 1010,6 30
12.08.2018 19:00:00 34,5 9,0 22 12 WSW 1010,5 27
12.08.2018 18:00:00 35,5 6,0 24 13 W 1010,4 30
12.08.2018 17:00:00 35,4 13,0 28 15 W 1010,4 25
12.08.2018 16:00:00 35,7 14,7 22 12 W 1010,8 18
12.08.2018 15:00:00 34,7 16,2 16 9 W 1012,1 25
12.08.2018 14:00:00 34,0 16,2 11 6 W 1012,9 30
12.08.2018 13:00:00 31,9 15,7 5 3 WNW 1013,7 30
12.08.2018 12:00:00 29,9 15,1 4 2 NNE 1014,7 23
12.08.2018 11:00:00 27,1 16,2 0 0 N 1015,5 20
12.08.2018 10:00:00 25,0 16,3 0 0 N 1016,1 30
12.08.2018 09:00:00 21,5 17,1 0 0 N 1017,0 15
12.08.2018 08:00:00 18,2 16,0 2 1 SSW 1017,5 15
12.08.2018 07:00:00 18,0 15,9 0 0 N 1017,0 16
12.08.2018 06:00:00 19,0 16,3 0 0 N 1016,7 15
12.08.2018 05:00:00 19,1 15,9 2 1 SW 1016,8 21
12.08.2018 04:00:00 20,1 15,7 0 0 N 1016,8 21
12.08.2018 03:00:00 21,5 15,6 4 2 NNW 1016,9 24
12.08.2018 02:00:00 22,3 17,7 4 2 W 1017,2 17

tt = Température de l'air
td = dewpoint
ff = Vitesse du vent
dd = Direction du vent
ppp = reduced air pressure
vv = visibility

stations d'obs. à proximité